Home   Weather   Erie   Past weeks

Flag for USA Past Weather in Erie, Pennsylvania, USA — Yesterday and Last 2 Weeks

Now
72 °F

Sunny.


Feels Like: 74 °F
Forecast: 69 / 78 °F
Wind: 5 mph from Southeast

Location: Erie International Airport

Current Time: Jul 22, 2017 at 8:57:23 am

Latest Report: Jul 22, 2017 at 7:51 am


Visibility: 10 mi

Pressure: 29.88 "Hg

Humidity: 73%

Dew Point: 63 °F

Location of ErieLocation

Past Weather in Erie — Graph

°F

Erie Temperature Yesterday

Maximum temperature yesterday: 84 °F (at 12:51 pm)
Minimum temperature yesterday: 69 °F (at 11:51 pm)
Average temperature yesterday: 77 °F

High & Low Weather Summary for the Past Weeks

 TemperatureHumidityPressure
High87 °F (Jul 20, 11:51 am)94% (Jul 14, 3:51 am)30.13 "Hg (Jul 14, 3:51 am)
Low58 °F (Jul 9, 1:51 am)41% (Jul 8, 9:51 pm)29.73 "Hg (Jul 8, 3:51 am)
Average73 °F75%29.97 "Hg
* Reported Jul 7 6:51 am — Jul 22 6:51 am, Erie. Weather by CustomWeather, © 2017

Note: Actual official high and low records may vary slightly from our data, if they occured in-between our weather recording intervals... More about our weather records

Advertising

Erie Weather History for the Previous 24 Hours

Scroll right to see more
 ConditionsComfort  
Time TempWeatherWind HumidityBarometerVisibility
6:51 am
Sat, Jul 22
70 °FSunny.8 mph79%29.89 "Hg10 mi
5:51 am69 °FClear.9 mph81%29.89 "Hg10 mi
4:51 am68 °FClear.9 mph84%29.89 "Hg10 mi
3:51 am67 °FClear.5 mph90%29.90 "Hg10 mi
2:51 am67 °FClear.5 mph87%29.90 "Hg10 mi
1:51 am70 °FClear.No wind81%29.95 "Hg10 mi
12:51 am70 °FClear.5 mph84%29.96 "Hg10 mi
11:51 pm
Fri, Jul 21
69 °FClear.No wind87%29.95 "Hg10 mi
10:51 pm71 °FClear.5 mph81%29.94 "Hg10 mi
9:51 pm73 °FClear.No wind79%29.94 "Hg10 mi
8:51 pm76 °FClear.5 mph72%29.94 "Hg10 mi
7:51 pm79 °FSunny.5 mph65%29.94 "Hg10 mi
6:51 pm80 °FSunny.3 mph60%29.93 "Hg10 mi
5:51 pm79 °FSunny.5 mph72%29.94 "Hg10 mi
4:51 pm81 °FSunny.8 mph67%29.94 "Hg10 mi
3:51 pm81 °FSunny.10 mph69%29.94 "Hg10 mi
2:51 pm81 °FSunny.9 mph72%29.95 "Hg10 mi
1:51 pm81 °FSunny.12 mph77%29.95 "Hg10 mi
12:51 pm84 °FSunny.7 mph63%29.95 "Hg10 mi
11:51 am83 °FSunny.5 mph65%29.95 "Hg10 mi
10:51 am81 °FSunny.3 mph69%29.96 "Hg10 mi
9:51 am80 °FBroken clouds.5 mph69%29.96 "Hg10 mi
8:51 am79 °FScattered clouds.3 mph72%29.96 "Hg10 mi
Weather by CustomWeather, © 2017

See weather overviewHow to use our weather pages